STARLINK-30380, 57780

Orbit data source: Space-Track

STARLINK-30380, 57780 is a payload satellite owned by SpaceX/Seattle (US) in LEO that was launched on Mon, 04 Sep 2023 UTC via an FALCON 9 launch vehicle from the Air Force Eastern Test Range (AFETR). Payload-class satellites include a variety of spacecraft equipped with specific instruments for various scientific and technological missions. These include communications satellites like Starlink; space stations such as the ISS; scientific satellites like the Hubble; Earth observation satellites from companies like Planet Labs, Umbra, and HawkEye 360; GPS; miniature CubeSats for education and research; and military/defense satellites.

Loading next visibility...
Identifier
57780, 2023-134K
Orbit
LEO
Country
Flag of USUS
Related business
Manufacturer
SpaceX/Seattle
Mission
Operational Commercial Communications
Bus & Motor
STARLINK V2M, Unknown motor
Mass
730 kg wet, ~700 kg dry
Launch date (UTC)
2023-09-04 (2 years ago)
Launch vehicle
FALCON 9
Launch site
Air Force Eastern Test Range (AFETR)
Object type
Payload
Rocket body
Debris
Shape & HBR
Box + 2 Pan, 17.7 m
Radar Cross Section
33.884 m², Large (>1 m²)

Expand to show TLE details & history
Last TLE update: 11 hours ago

TLE from 11 hours ago
0 STARLINK-30380
1 57780U 23134K   25346.93459581 -.00001728  00000-0 -11291-3 0  9991
2 57780  43.0029 308.6796 0001509 267.3573  92.7097 15.02529908126424
Epoch: 2025-12-12T22:25Z
TLE epoch observation values (Epoch: 2025-12-12T22:25:49.077Z)
Latitude
-0.00001°
Longitude
-109.64399°
Altitude
558.926 km
Speed
7.584 km/s
True Right ascension
20h 34m 43s
True Declination
0° 00' 00"
Sunlit
Object was in daylight at epoch
Visualization orbit readout
Latitude
Unknown
Longitude
Unknown
Altitude
Unknown
Speed
Unknown
Apparent Right ascension
Unknown
Apparent Declination
Unknown
Sunlit
N/A
Visualization observer readout
Local Sidereal Time
07:31:24
Azimuth
Unknown
Elevation
Unknown
Doppler factor
Unknown
Orbital elements
Apogee altitude
562.069 km
Perigee altitude
559.975 km
Semi-major axis
6,939.159 km
Eccentricity
0.00015
Inclination
43.0029°
RAAN
308.6796°
Arg. of periapsis
267.3573°
True anomaly
92.72697°
Mean anomaly
92.7097°
Eccentric anomaly
92.71834°
Mean motion
3.75477 °/min
Orbital period
95.88 mins
BSTAR
-0.00011291
Loading maneuver chart data...
Computing Atmospheric mass density...
Loading historical data...
Loading historical data...
Loading historical data...
Loading historical data...
Loading historical data...
Loading historical data...
Loading historical data...

Documentation

Showing up to 5 results
|